Location: Deep South Regional Star Gaze
(30.9929°N, 90.9586°W)
Time: 07:55:24
(UTC-05:00)

Daily predictions for brighter satellites

Satellite Brightness Start Highest point End
(mag) Time Altitude Azimuth Time Altitude Azimuth Time Altitude Azimuth
NOSS 3-2 (C) 4.2 20:11:22 10° NNW 20:19:10 87° WSW 20:27:27 10° SSE
Resurs 01 Rocket 1.8 20:21:24 10° SSE 20:25:45 59° ENE 20:30:06 10° N
NOSS 2-2 (D) 4.0 20:23:41 10° SW 20:27:34 61° WNW 20:31:47 10° NNE
CENTAUR R/B 3.7 20:21:53 10° NNW 20:29:30 43° NE 20:37:24 10° SE
Cosmos 1455 Rocket 3.4 20:26:25 10° N 20:30:36 44° E 20:34:43 10° SSE
Meteor 1-29 4.1 20:34:57 10° NE 20:37:42 23° E 20:40:27 10° SSE
Okean 1 3.8 20:33:55 10° SSW 20:37:50 63° W 20:41:46 10° N
COSMOS 2406 3.2 20:32:53 10° SSW 20:38:36 76° ESE 20:44:19 10° NNE
ALOS 3.8 20:35:28 10° SSW 20:39:46 37° W 20:44:06 10° NNW
Meteor 1-13 Rocket 4.4 20:40:08 10° S 20:45:59 62° E 20:51:48 10° NNE
ASTRO E2 2.6 20:42:24 10° W 20:46:24 82° SSW 20:49:55 13° ESE
CZ-4B DEB 4.2 20:48:37 15° ESE 20:50:01 20° ENE 20:52:18 10° NNE
Cosmos 2112 Rocket 4.0 20:45:52 10° S 20:51:01 63° ESE 20:56:10 10° NNE
Cosmos 1975 2.9 20:47:05 10° N 20:51:10 87° W 20:55:15 10° S
Cosmos 1743 3.3 20:48:19 10° NNE 20:51:59 38° E 20:54:59 14° SSE
Cosmos 1346 2.7 20:52:18 10° S 20:55:01 62° E 20:57:44 10° NNE
Aureole 3 Rocket 3.9 20:48:13 10° S 20:55:07 60° E 21:00:01 10° NNE
ISS -1.4 20:52:16 10° W 20:55:09 27° NW 20:58:02 10° NNE
ASTEX 1 4.5 20:55:06 15° SE 20:58:05 26° ENE 21:02:08 10° NNE
CZ-2D R/B 3.9 20:55:11 10° S 20:58:54 54° W 21:02:39 10° NNW
OAO 2 Rocket 3.9 20:54:53 10° W 20:59:42 53° N 21:04:34 10° ENE
Spot 2 Rocket 3.9 20:55:07 10° S 21:00:06 65° WSW 21:05:07 10° NNW
Helios 1A 3.2 20:58:49 14° SSE 21:02:18 55° ENE 21:06:25 10° N
SAR-Lupe-4 4.1 21:01:11 19° SE 21:03:22 41° ENE 21:06:45 10° N
GPS 2-14 Rocket1 4.4 21:01:26 10° SSW 21:03:48 16° S 21:04:24 15° SSE
SL-27 R/B 2.4 21:00:19 10° S 21:03:57 79° ESE 21:07:36 10° NNE
Cosmos 1939 Rocket 3.1 21:04:17 19° SE 21:06:48 49° ENE 21:10:32 10° N
YAOGAN 6 3.7 21:06:34 22° ESE 21:07:43 26° ENE 21:10:41 10° NNE
USA 81 4.3 21:04:00 10° S 21:09:14 71° W 21:14:31 10° N
Cosmos 1680 Rocket 4.0 21:08:24 10° SSW 21:13:34 63° WNW 21:18:44 10° N
Okean 1-7 Rocket 3.8 21:11:05 15° SSE 21:14:31 49° E 21:18:51 10° NNE
Cosmos 1666 2.9 21:10:57 10° N 21:14:35 48° E 21:16:14 27° SE
Cosmos 1833 Rocket 4.0 21:19:02 19° E 21:19:02 19° E 21:22:37 10° ENE
Meteor 2-13 Rocket 4.4 21:12:55 10° N 21:18:58 69° E 21:23:47 17° SSE
CZ-3B Rocket 3.5 21:16:08 10° SW 21:19:36 25° SSE 21:21:32 22° SE
SAR-Lupe-1 4.1 21:18:05 29° SE 21:19:41 59° ENE 21:23:13 10° N
DNEPR-1 R/B 4.1 21:16:34 10° NNW 21:20:45 47° ENE 21:22:55 27° ESE
Cosmos 2327 Rocket 4.5 21:15:32 10° N 21:21:44 69° E 21:26:38 17° SSE
Envisat 3.0 21:17:49 13° S 21:22:19 81° WSW 21:27:25 10° NNW
Cosmos 1437 Rocket 4.2 21:22:17 10° NNE 21:25:15 21° ENE 21:25:16 21° ENE
USA 186 3.9 21:23:08 10° SSW 21:25:51 25° W 21:28:32 10° NW
Meteor 2-4 Rocket 3.7 21:20:49 10° S 21:26:24 87° W 21:32:12 10° N
Cosmos 1656 Rocket 3.7 21:20:58 10° NNW 21:26:26 76° WSW 21:30:21 20° S
Helios 1B rocket 3.7 21:26:24 10° N 21:30:19 42° WNW 21:34:14 10° SW
COSMOS 2455 4.1 21:25:04 10° NW 21:30:31 37° WSW 21:35:58 10° S
Aurora 2 Rocket 4.4 21:26:21 10° W 21:33:29 53° S 21:38:55 26° SE
Hubble Space Telescope 2.5 21:32:43 10° SSW 21:34:23 18° SSW 21:34:23 18° SSW
Cosmos 374 Rocket 4.3 21:34:54 10° NNW 21:38:40 78° WSW 21:40:04 40° SSE
Cosmos 1025 Rocket 2.9 21:36:04 22° S 21:38:44 89° ESE 21:43:01 10° N
Cosmos 405 2.9 21:36:40 10° N 21:40:11 62° E 21:40:27 59° ESE
Cosmos 1515 4.4 21:40:58 35° ENE 21:40:58 35° ENE 21:44:01 10° NNE
COSMOS 2487 4.1 21:43:44 23° NE 21:43:44 23° NE 21:45:25 10° NE
NOSS 8 (F) 4.4 21:41:58 10° SSW 21:45:41 84° WNW 21:49:10 10° NNE
GENESIS II 4.0 21:42:10 10° NNW 21:46:06 88° ENE 21:46:42 62° SSE
CZ-3A R/B 2.3 21:40:04 10° SW 21:46:10 43° WNW 21:48:24 10° NNE
Cosmos 2181 Rocket 4.2 21:49:25 35° SSE 21:51:51 53° E 21:57:57 10° NNE
Okean 2 3.4 21:54:01 39° SSW 21:55:25 74° W 21:59:30 10° N
Cosmos 2058 Rocket 4.2 21:53:31 10° NNE 21:56:51 29° ENE 21:56:51 29° ENE
Cosmos 1610 Rocket 4.5 21:51:16 10° N 21:57:30 80° W 22:00:51 29° S
Tiangong 2 4.3 21:56:59 10° NNW 21:58:02 11° N 21:59:05 10° N
ARGOS 3.4 21:58:32 44° ESE 21:59:34 49° ENE 22:04:46 10° N
Cosmos 1371 Rocket 3.9 21:57:22 10° NNW 22:02:40 75° ENE 22:03:45 56° SE
ERS-1 Rocket 2.9 22:01:27 45° S 22:03:02 80° WSW 22:08:04 10° NNW
NOAA 11 4.1 22:05:25 50° SSE 22:06:56 85° ENE 22:12:23 10° NNW
Terra 3.8 22:07:56 16° ENE 22:07:56 16° ENE 22:10:12 10° NNE
Nimbus 7 Rocket 4.4 22:02:02 10° NNE 22:08:04 65° ESE 22:09:46 46° SSE
SPOT 5 2.8 22:09:29 54° ENE 22:09:29 54° ENE 22:13:27 10° N
H-2A R/B 4.2 22:15:12 16° NE 22:15:12 16° NE 22:17:10 10° NNE
MetOp-B 4.1 22:18:17 58° S 22:19:21 80° WSW 22:24:43 10° NNW
CENTAUR R/B 4.0 22:12:42 10° NW 22:20:13 41° WSW 22:24:51 23° SSW
Cosmos 962 Rocket 4.3 22:14:13 10° N 22:20:27 85° E 22:21:52 56° SSE
Cosmos 2082 Rocket 2.1 22:23:35 53° SSW 22:25:00 90° S 22:30:42 10° NNE
MOS 1-B Rocket 4.0 22:26:27 50° SSW 22:27:54 69° WSW 22:34:04 10° NNW
Cosmos 2278 3.7 22:25:31 10° NNW 22:31:10 62° ENE 22:31:15 62° ENE
SL-24 DEB 4.5 22:35:50 66° WNW 22:35:50 66° WNW 22:40:09 10° N
SL-8 Rocket 3.9 22:31:53 10° N 22:38:08 71° E 22:38:28 69° ESE
H-2A R/B 2.1 22:40:27 66° NNE 22:40:27 66° NNE 22:44:50 10° N
Cosmos 2366 rocket 4.2 22:37:54 10° N 22:43:33 54° ENE 22:43:33 54° ENE
Mugunghwa Rocket 4.3 22:36:00 10° WSW 22:44:05 61° S 22:44:09 61° S
OAO 2 Rocket 3.6 22:39:49 10° WNW 22:44:05 62° NW 22:44:05 62° NW
Cosmos 2228 4.0 22:43:22 10° N 22:46:19 43° NNW 22:46:19 43° NNW
Cosmos 921 Rocket 4.0 22:46:06 10° NNW 22:49:22 45° NW 22:49:22 45° NW
Cosmos 2369 3.7 22:45:14 10° NNW 22:50:41 81° NW 22:50:41 81° NW
Cosmos 1697 Rocket 3.4 22:46:20 10° N 22:50:56 41° NE 22:50:56 41° NE
Cosmos 1656 3.9 22:53:28 10° NNW 22:58:04 62° N 22:58:04 62° N
Cosmos 1833 Rocket 3.6 23:00:38 34° WSW 23:02:19 44° WNW 23:07:41 10° N
Cosmos 1959 Rocket 4.5 23:01:01 10° N 23:07:14 79° WNW 23:07:14 79° WNW
Timation 2 Rocket 4.1 23:08:53 65° W 23:09:25 68° WNW 23:15:38 10° NNE
Cosmos 2218 Rocket 4.4 23:18:24 10° NNW 23:24:06 55° W 23:24:06 55° W
Cosmos 1980 Rocket 3.2 23:34:21 10° NNW 23:38:08 42° N 23:38:08 42° N
Terra 3.8 23:46:49 26° NW 23:46:49 26° NW 23:49:09 10° NNW
Nadezhda 3 Rocket 4.5 23:46:50 58° NNW 23:46:50 58° NNW 23:52:03 10° N
H-2A R/B 4.5 23:52:19 20° NW 23:52:19 20° NW 23:54:01 10° NNW
Cosmos 2322 Rocket 4.0 23:45:40 10° N 23:48:59 24° NE 23:48:59 24° NE
